| time (UTC) | temp F | wind direction | speed MPH | gust MPH | rain 1hr in | rain 24hr in | rain mn in | humidity % | barometer mb |
| 20260831191238 | 58 | 21 | 7.0 | 14.0 | 0.00 | 0.00 | 0.00 | 45 | 1018.8 |
| 20260831190338 | 58 | 17 | 8.0 | 13.0 | 0.00 | 0.00 | 0.00 | 45 | 1018.9 |
| 20260831185439 | 58 | 18 | 7.0 | 12.0 | 0.00 | 0.00 | 0.00 | 44 | 1018.9 |
| 20260831184537 | 58 | 20 | 7.0 | 12.0 | 0.00 | 0.00 | 0.00 | 44 | 1019.0 |
| 20260831183638 | 58 | 19 | 8.0 | 14.0 | 0.00 | 0.00 | 0.00 | 44 | 1019.0 |
| 20260831182738 | 58 | 17 | 7.0 | 12.0 | 0.00 | 0.00 | 0.00 | 43 | 1019.2 |
| 20260831181838 | 58 | 15 | 8.0 | 16.0 | 0.00 | 0.00 | 0.00 | 43 | 1019.4 |
| 20260831180937 | 58 | 10 | 8.0 | 15.0 | 0.00 | 0.00 | 0.00 | 43 | 1019.5 |
| 20260831175137 | 58 | 17 | 8.0 | 13.0 | 0.00 | 0.00 | 0.00 | 43 | 1019.6 |
| 20260831173338 | 59 | 18 | 7.0 | 13.0 | 0.00 | 0.00 | 0.00 | 42 | 1019.7 |
| 20260831172438 | 59 | 17 | 7.0 | 14.0 | 0.00 | 0.00 | 0.00 | 42 | 1019.8 |
| 20260831171537 | 59 | 20 | 7.0 | 13.0 | 0.00 | 0.00 | 0.00 | 42 | 1019.9 |
| 20260831170637 | 59 | 15 | 7.0 | 12.0 | 0.00 | 0.00 | 0.00 | 42 | 1020.1 |
| 20260831165737 | 59 | 18 | 6.0 | 12.0 | 0.00 | 0.00 | 0.00 | 42 | 1020.3 |
| 20260831164837 | 59 | 16 | 6.0 | 11.0 | 0.00 | 0.00 | 0.00 | 42 | 1020.2 |
| 20260831163937 | 59 | 18 | 7.0 | 13.0 | 0.00 | 0.00 | 0.00 | 42 | 1020.4 |
| 20260831161237 | 59 | 23 | 6.0 | 12.0 | 0.00 | 0.00 | 0.00 | 42 | 1020.8 |
| 20260831155437 | 59 | 26 | 7.0 | 13.0 | 0.00 | 0.00 | 0.00 | 42 | 1021.1 |
| 20260831154537 | 58 | 29 | 7.0 | 12.0 | 0.00 | 0.00 | 0.00 | 42 | 1021.2 |
| 20260831153637 | 58 | 24 | 6.0 | 13.0 | 0.00 | 0.00 | 0.00 | 42 | 1021.5 |
| 20260831151837 | 58 | 23 | 5.0 | 10.0 | 0.00 | 0.00 | 0.00 | 43 | 1021.7 |
| 20260831150937 | 58 | 29 | 6.0 | 10.0 | 0.00 | 0.00 | 0.00 | 43 | 1021.6 |
| 20260831150037 | 58 | 30 | 5.0 | 10.0 | 0.00 | 0.00 | 0.00 | 43 | 1021.9 |
| 20260831145137 | 58 | 34 | 5.0 | 9.0 | 0.00 | 0.00 | 0.00 | 43 | 1022.0 |
| 20260831144239 | 58 | 48 | 5.0 | 9.0 | 0.00 | 0.00 | 0.00 | 43 | 1022.0 |
| 20260831143337 | 57 | 56 | 4.0 | 7.0 | 0.00 | 0.00 | 0.00 | 43 | 1022.2 |
| 20260831141537 | 57 | 54 | 3.0 | 5.0 | 0.00 | 0.00 | 0.00 | 44 | 1022.4 |
| 20260831140637 | 56 | 54 | 2.0 | 5.0 | 0.00 | 0.00 | 0.00 | 45 | 1022.5 |
| 20260831135737 | 56 | 72 | 2.0 | 4.0 | 0.00 | 0.00 | 0.00 | 45 | 1022.6 |
| 20260831133937 | 56 | 85 | 1.0 | 3.0 | 0.00 | 0.00 | 0.00 | 46 | 1023.0 |
| 20260831132137 | 57 | 11 | 1.0 | 3.0 | 0.00 | 0.00 | 0.00 | 44 | 1023.4 |
| 20260831130337 | 58 | 22 | 2.0 | 4.0 | 0.00 | 0.00 | 0.00 | 42 | 1023.5 |
| 20260831125437 | 59 | 35 | 2.0 | 4.0 | 0.00 | 0.00 | 0.00 | 40 | 1023.5 |
| 20260831124537 | 60 | 43 | 3.0 | 8.0 | 0.00 | 0.00 | 0.00 | 39 | 1023.6 |
| 20260831123637 | 60 | 46 | 4.0 | 8.0 | 0.00 | 0.00 | 0.00 | 39 | 1023.6 |
| 20260831122738 | 61 | 48 | 5.0 | 11.0 | 0.00 | 0.00 | 0.00 | 38 | 1023.7 |
| 20260831121837 | 61 | 46 | 5.0 | 9.0 | 0.00 | 0.00 | 0.00 | 38 | 1023.7 |
| 20260831120937 | 61 | 53 | 6.0 | 12.0 | 0.00 | 0.00 | 0.00 | 39 | 1023.6 |
| 20260831113337 | 60 | 63 | 4.0 | 10.0 | 0.00 | 0.00 | 0.00 | 40 | 1023.8 |
| 20260831112436 | 60 | 74 | 4.0 | 10.0 | 0.00 | 0.00 | 0.00 | 40 | 1023.8 |
| 20260831111536 | 60 | 70 | 4.0 | 9.0 | 0.00 | 0.00 | 0.00 | 41 | 1023.9 |
| 20260831104836 | 60 | 59 | 3.0 | 5.0 | 0.00 | 0.00 | 0.00 | 42 | 1024.0 |
| 20260831103937 | 60 | 66 | 3.0 | 6.0 | 0.00 | 0.00 | 0.00 | 43 | 1024.1 |
| 20260831103036 | 60 | 46 | 2.0 | 7.0 | 0.00 | 0.00 | 0.00 | 43 | 1024.1 |
| 20260831102136 | 60 | 58 | 1.0 | 4.0 | 0.00 | 0.00 | 0.00 | 43 | 1024.2 |
| 20260831101236 | 60 | 54 | 1.0 | 2.0 | 0.00 | 0.00 | 0.00 | 42 | 1024.2 |
| 20260831100336 | 61 | 54 | 1.0 | 3.0 | 0.00 | 0.00 | 0.00 | 42 | 1024.3 |
| 20260831095437 | 60 | 53 | 0.0 | 2.0 | 0.00 | 0.00 | 0.00 | 44 | 1024.4 |
| 20260831094536 | 61 | 54 | 0.0 | 1.0 | 0.00 | 0.00 | 0.00 | 42 | 1024.5 |
| 20260831093636 | 61 | 54 | 0.0 | 1.0 | 0.00 | 0.00 | 0.00 | 43 | 1024.5 |
| 20260831092740 | 62 | 54 | 0.0 | 1.0 | 0.00 | 0.00 | 0.00 | 41 | 1024.4 |
| 20260831090936 | 63 | 54 | 0.0 | 2.0 | 0.00 | 0.00 | 0.00 | 37 | 1024.3 |
| 20260831090036 | 64 | 54 | 1.0 | 2.0 | 0.00 | 0.00 | 0.00 | 36 | 1024.4 |
| 20260831085136 | 65 | 52 | 2.0 | 3.0 | 0.00 | 0.00 | 0.00 | 35 | 1024.5 |
| 20260831083336 | 66 | 60 | 3.0 | 5.0 | 0.00 | 0.00 | 0.00 | 35 | 1024.5 |
| 20260831082436 | 67 | 44 | 3.0 | 5.0 | 0.00 | 0.00 | 0.00 | 34 | 1024.6 |
| 20260831081536 | 67 | 51 | 3.0 | 6.0 | 0.00 | 0.00 | 0.00 | 33 | 1024.6 |
| 20260831080636 | 68 | 48 | 5.0 | 10.0 | 0.00 | 0.00 | 0.00 | 32 | 1024.6 |
| 20260831075736 | 68 | 36 | 4.0 | 10.0 | 0.00 | 0.00 | 0.00 | 32 | 1024.5 |
| 20260831074836 | 69 | 2 | 3.0 | 9.0 | 0.00 | 0.00 | 0.00 | 31 | 1024.3 |
| 20260831073937 | 69 | 32 | 4.0 | 9.0 | 0.00 | 0.00 | 0.00 | 31 | 1024.3 |
| 20260831073036 | 69 | 45 | 5.0 | 11.0 | 0.00 | 0.00 | 0.00 | 30 | 1024.5 |
| 20260831072139 | 69 | 49 | 5.0 | 9.0 | 0.00 | 0.00 | 0.00 | 30 | 1024.4 |
| 20260831071236 | 70 | 47 | 6.0 | 10.0 | 0.00 | 0.00 | 0.00 | 28 | 1024.5 |
| 20260831070336 | 71 | 28 | 7.0 | 11.0 | 0.00 | 0.00 | 0.00 | 27 | 1024.5 |
| 20260831065437 | 71 | 35 | 6.0 | 11.0 | 0.00 | 0.00 | 0.00 | 29 | 1024.6 |
| 20260831064536 | 70 | 57 | 6.0 | 13.0 | 0.00 | 0.00 | 0.00 | 29 | 1024.6 |
| 20260831063637 | 71 | 33 | 5.0 | 12.0 | 0.00 | 0.00 | 0.00 | 29 | 1024.8 |
| 20260831061836 | 71 | 34 | 8.0 | 13.0 | 0.00 | 0.00 | 0.00 | 27 | 1025.0 |
| 20260831060036 | 72 | 30 | 6.0 | 12.0 | 0.00 | 0.00 | 0.00 | 25 | 1025.1 |
| 20260831055136 | 72 | 34 | 6.0 | 14.0 | 0.00 | 0.00 | 0.00 | 26 | 1025.2 |
| 20260831054236 | 72 | 36 | 5.0 | 12.0 | 0.00 | 0.00 | 0.00 | 23 | 1025.2 |
| 20260831052436 | 72 | 33 | 8.0 | 14.0 | 0.00 | 0.00 | 0.00 | 22 | 1025.3 |
| 20260831051537 | 72 | 45 | 6.0 | 11.0 | 0.00 | 0.00 | 0.00 | 23 | 1025.4 |
| 20260831050636 | 72 | 27 | 7.0 | 13.0 | 0.00 | 0.00 | 0.00 | 24 | 1025.5 |
| 20260831045736 | 73 | 25 | 6.0 | 11.0 | 0.00 | 0.00 | 0.00 | 24 | 1025.6 |
| 20260831044836 | 73 | 33 | 8.0 | 18.0 | 0.00 | 0.00 | 0.00 | 21 | 1025.7 |
| 20260831043936 | 73 | 28 | 6.0 | 13.0 | 0.00 | 0.00 | 0.00 | 22 | 1025.9 |
| 20260831043036 | 72 | 24 | 5.0 | 13.0 | 0.00 | 0.00 | 0.00 | 23 | 1026.1 |
| 20260831042136 | 74 | 3 | 8.0 | 14.0 | 0.00 | 0.00 | 0.00 | 23 | 1026.2 |
| 20260831040336 | 74 | 18 | 6.0 | 13.0 | 0.00 | 0.00 | 0.00 | 23 | 1026.5 |
| 20260831035435 | 73 | 42 | 5.0 | 10.0 | 0.00 | 0.00 | 0.00 | 25 | 1026.7 |
| 20260831034535 | 73 | 16 | 6.0 | 10.0 | 0.00 | 0.00 | 0.00 | 23 | 1027.1 |
| 20260831033635 | 73 | 354 | 6.0 | 12.0 | 0.00 | 0.00 | 0.00 | 24 | 1027.3 |
| 20260831032736 | 74 | 47 | 6.0 | 13.0 | 0.00 | 0.00 | 0.00 | 28 | 1027.4 |
| 20260831031836 | 73 | 13 | 5.0 | 12.0 | 0.00 | 0.00 | 0.00 | 28 | 1027.7 |
| 20260831030935 | 74 | 354 | 4.0 | 10.0 | 0.00 | 0.00 | 0.00 | 30 | 1027.8 |
| 20260831030035 | 73 | 356 | 6.0 | 12.0 | 0.00 | 0.00 | 0.00 | 29 | 1028.1 |
| 20260831025135 | 73 | 16 | 7.0 | 12.0 | 0.00 | 0.00 | 0.00 | 30 | 1028.2 |
| 20260831024235 | 73 | 339 | 6.0 | 15.0 | 0.00 | 0.00 | 0.00 | 29 | 1028.4 |
| 20260831022437 | 71 | 12 | 5.0 | 11.0 | 0.00 | 0.00 | 0.00 | 36 | 1028.8 |
| 20260831021535 | 71 | 10 | 5.0 | 13.0 | 0.00 | 0.00 | 0.00 | 35 | 1028.9 |
| 20260831020635 | 71 | 357 | 3.0 | 13.0 | 0.00 | 0.00 | 0.00 | 35 | 1029.0 |
| 20260831015735 | 70 | 334 | 3.0 | 8.0 | 0.00 | 0.00 | 0.00 | 38 | 1029.2 |
| 20260831014835 | 70 | 293 | 3.0 | 8.0 | 0.00 | 0.00 | 0.00 | 38 | 1029.3 |
| 20260831013935 | 69 | 301 | 3.0 | 5.0 | 0.00 | 0.00 | 0.00 | 40 | 1029.5 |
| 20260831013035 | 69 | 303 | 2.0 | 6.0 | 0.00 | 0.00 | 0.00 | 40 | 1029.7 |
| 20260831012135 | 68 | 302 | 3.0 | 7.0 | 0.00 | 0.00 | 0.00 | 41 | 1029.7 |
| 20260831011235 | 68 | 287 | 2.0 | 6.0 | 0.00 | 0.00 | 0.00 | 40 | 1029.8 |
| 20260831010336 | 67 | 310 | 2.0 | 6.0 | 0.00 | 0.00 | 0.00 | 40 | 1029.8 |
| 20260831005435 | 68 | 324 | 2.0 | 7.0 | 0.00 | 0.00 | 0.00 | 40 | 1029.8 |
| 20260831004535 | 67 | 298 | 2.0 | 5.0 | 0.00 | 0.00 | 0.00 | 45 | 1029.8 |
| 20260831003635 | 66 | 302 | 2.0 | 5.0 | 0.00 | 0.00 | 0.00 | 42 | 1029.8 |
| 20260831002735 | 66 | 275 | 3.0 | 6.0 | 0.00 | 0.00 | 0.00 | 45 | 1029.9 |
| 20260831001835 | 65 | 295 | 2.0 | 5.0 | 0.00 | 0.00 | 0.00 | 46 | 1029.9 |
| 20260831000935 | 64 | 283 | 3.0 | 6.0 | 0.00 | 0.00 | 0.00 | 49 | 1030.0 |
| 20260831000035 | 63 | 284 | 2.0 | 6.0 | 0.00 | 0.00 | 0.00 | 49 | 1030.0 |
| 20260830235136 | 63 | 270 | 2.0 | 4.0 | 0.00 | 0.00 | 0.00 | 51 | 1029.9 |
| 20260830234235 | 60 | 287 | 1.0 | 3.0 | 0.00 | 0.00 | 0.00 | 53 | 1030.0 |
| 20260830233335 | 60 | 316 | 1.0 | 3.0 | 0.00 | 0.00 | 0.00 | 52 | 1030.0 |
| 20260830231535 | 57 | 296 | 2.0 | 4.0 | 0.00 | 0.00 | 0.00 | 58 | 1030.0 |
| 20260830230636 | 55 | 306 | 1.0 | 4.0 | 0.00 | 0.00 | 0.00 | 60 | 1030.1 |
| 20260830225735 | 51 | 27 | 1.0 | 4.0 | 0.00 | 0.00 | 0.00 | 59 | 1030.1 |
| 20260830224836 | 51 | 67 | 1.0 | 4.0 | 0.00 | 0.00 | 0.00 | 59 | 1030.1 |
| 20260830223935 | 50 | 32 | 0.0 | 2.0 | 0.00 | 0.00 | 0.00 | 58 | 1030.0 |
| 20260830223035 | 50 | 28 | 0.0 | 1.0 | 0.00 | 0.00 | 0.00 | 57 | 1030.1 |
| 20260830222136 | 50 | 0 | 0.0 | 0.0 | 0.00 | 0.00 | 0.00 | 56 | 1030.2 |
| 20260830220335 | 50 | 0 | 0.0 | 0.0 | 0.00 | 0.00 | 0.00 | 55 | 1030.1 |
| 20260830214535 | 51 | 294 | 0.0 | 2.0 | 0.00 | 0.00 | 0.00 | 55 | 1030.0 |
| 20260830212735 | 51 | 304 | 0.0 | 2.0 | 0.00 | 0.00 | 0.00 | 54 | 1030.0 |
| 20260830211836 | 52 | 304 | 0.0 | 2.0 | 0.00 | 0.00 | 0.00 | 53 | 1029.9 |
| 20260830210935 | 53 | 52 | 1.0 | 3.0 | 0.00 | 0.00 | 0.00 | 53 | 1029.9 |
| 20260830210035 | 53 | 34 | 1.0 | 3.0 | 0.00 | 0.00 | 0.00 | 54 | 1029.9 |
| 20260830205134 | 54 | 32 | 1.0 | 4.0 | 0.00 | 0.00 | 0.00 | 54 | 1029.9 |
| 20260830204234 | 54 | 58 | 3.0 | 10.0 | 0.00 | 0.00 | 0.00 | 54 | 1029.9 |
| 20260830203334 | 54 | 102 | 5.0 | 10.0 | 0.00 | 0.00 | 0.00 | 54 | 1029.7 |
| 20260830202434 | 54 | 103 | 7.0 | 13.0 | 0.00 | 0.00 | 0.00 | 54 | 1029.6 |
| 20260830201535 | 54 | 105 | 6.0 | 11.0 | 0.00 | 0.00 | 0.00 | 54 | 1029.6 |
| 20260830195734 | 54 | 103 | 6.0 | 10.0 | 0.00 | 0.00 | 0.00 | 53 | 1029.6 |
| 20260830194834 | 54 | 105 | 6.0 | 11.0 | 0.00 | 0.00 | 0.00 | 53 | 1029.6 |
| 20260830193935 | 54 | 105 | 6.0 | 11.0 | 0.00 | 0.00 | 0.00 | 53 | 1029.5 |
| 20260830193034 | 54 | 104 | 7.0 | 11.0 | 0.00 | 0.00 | 0.00 | 54 | 1029.4 |
| 20260830192134 | 53 | 104 | 7.0 | 12.0 | 0.00 | 0.00 | 0.00 | 54 | 1029.3 |